Date Time,Air Temp,Sky Temp,Clarity,Light Level,Rain Sensor,Readings
2011-02-28 00:00:54,16.8,-12.7,29.6,0.0,2.3,111
2011-02-28 00:05:54,16.9,-18.3,35.2,0.0,2.3,112
2011-02-28 00:10:54,16.8,-22.1,39.0,0.0,2.3,112
2011-02-28 00:15:54,16.8,-19.4,36.2,0.0,2.3,111
2011-02-28 00:20:54,16.7,-6.7,23.4,0.0,2.3,112
2011-02-28 00:25:54,14.3,-4.6,18.9,0.0,2.3,112
2011-02-28 00:30:54,15.3,-14.1,29.4,0.0,2.3,111
2011-02-28 00:35:54,16.6,-20.8,37.4,0.0,2.3,112
2011-02-28 00:40:54,16.8,-19.7,36.5,0.0,2.3,111
2011-02-28 00:45:54,16.8,-22.4,39.2,0.0,2.3,112
2011-02-28 00:50:54,16.8,-22.9,39.7,0.0,2.3,112
2011-02-28 00:55:54,16.8,-23.0,39.8,0.0,2.3,112
2011-02-28 01:00:54,16.8,-23.1,39.9,0.0,2.3,111
2011-02-28 01:05:54,16.8,-21.4,38.2,0.0,2.3,112
2011-02-28 01:10:54,16.8,-19.6,36.3,0.0,2.3,111
2011-02-28 01:15:54,16.8,-19.0,35.8,0.0,2.3,112
2011-02-28 01:20:54,16.8,-16.6,33.4,0.0,2.3,111
2011-02-28 01:25:54,16.9,-14.3,31.2,0.0,2.3,112
2011-02-28 01:30:54,16.9,-3.9,20.9,0.0,2.3,112
2011-02-28 01:35:54,15.1,-2.0,17.1,0.0,2.3,111
2011-02-28 01:40:54,13.2,-1.0,14.2,0.0,2.4,112
2011-02-28 01:45:54,12.8,-1.0,13.8,0.0,2.3,111
2011-02-28 01:50:54,12.6,-1.5,14.1,0.0,2.2,111
2011-02-28 01:55:54,12.5,-1.7,14.2,0.0,2.2,112
2011-02-28 02:00:54,12.4,-1.2,13.6,0.0,2.1,112
2011-02-28 02:05:54,12.4,-1.4,13.8,0.0,2.0,111
2011-02-28 02:10:54,12.5,-3.7,16.2,0.0,2.0,111
2011-02-28 02:15:54,15.0,-16.6,31.6,0.0,2.4,112
2011-02-28 02:20:54,16.3,-21.7,38.0,0.0,2.3,111
2011-02-28 02:25:54,16.6,-22.6,39.2,0.0,2.3,112
2011-02-28 02:30:54,16.7,-22.6,39.3,0.0,2.3,111
2011-02-28 02:35:54,16.7,-22.4,39.1,0.0,2.3,112
2011-02-28 02:40:54,16.6,-22.5,39.1,0.0,2.3,112
2011-02-28 02:45:54,16.5,-22.8,39.3,0.0,2.3,111
2011-02-28 02:50:54,16.5,-22.8,39.3,0.0,2.3,112
2011-02-28 02:55:54,16.4,-23.0,39.4,0.0,2.3,112
2011-02-28 03:00:54,16.4,-23.1,39.5,0.0,2.3,111
2011-02-28 03:05:54,16.3,-23.2,39.5,0.0,2.3,112
2011-02-28 03:10:54,16.3,-23.2,39.5,0.0,2.3,111
2011-02-28 03:15:54,16.3,-23.2,39.5,0.0,2.3,112
2011-02-28 03:20:54,16.2,-23.2,39.4,0.0,2.3,111
2011-02-28 03:25:54,16.2,-23.3,39.4,0.0,2.3,112
2011-02-28 03:30:54,16.1,-23.3,39.4,0.0,2.3,111
2011-02-28 03:35:54,16.1,-23.3,39.5,0.0,2.3,112
2011-02-28 03:40:54,16.2,-23.2,39.5,0.0,2.3,111
2011-02-28 03:45:54,16.2,-23.2,39.4,0.0,2.3,111
2011-02-28 03:50:54,16.2,-22.6,38.7,0.0,2.3,112
2011-02-28 03:55:54,16.3,-22.6,38.9,0.0,2.3,112
2011-02-28 04:00:54,16.3,-23.2,39.5,0.0,2.3,111
2011-02-28 04:05:54,16.2,-23.2,39.5,0.0,2.3,112
2011-02-28 04:10:54,16.2,-23.0,39.2,0.0,2.3,111
2011-02-28 04:15:54,16.2,-22.3,38.5,0.0,2.3,112
2011-02-28 04:20:54,16.3,-18.7,34.9,0.0,2.3,111
2011-02-28 04:25:54,16.3,-19.5,35.9,0.0,2.3,112
2011-02-28 04:30:54,16.3,-23.3,39.6,0.0,2.3,112
2011-02-28 04:35:54,16.3,-23.3,39.6,0.0,2.3,111
2011-02-28 04:40:54,16.3,-22.6,38.9,0.0,2.3,112
2011-02-28 04:45:54,16.4,-23.2,39.6,0.0,2.3,111
2011-02-28 04:50:54,16.4,-23.3,39.7,0.0,2.3,112
2011-02-28 04:55:54,16.4,-22.2,38.6,0.0,2.3,111
2011-02-28 05:00:54,16.3,-18.4,34.7,0.0,2.3,112
2011-02-28 05:05:54,16.3,-22.1,38.4,0.0,2.3,111
2011-02-28 05:10:54,16.4,-20.1,36.4,0.0,2.3,112
2011-02-28 05:15:54,16.5,-23.1,39.5,0.0,2.3,111
2011-02-28 05:20:54,16.5,-22.8,39.2,0.0,2.3,112
2011-02-28 05:25:54,16.2,-15.8,32.1,0.0,2.3,111
2011-02-28 05:30:54,16.6,-22.4,39.0,0.0,2.3,112
2011-02-28 05:35:54,16.5,-21.0,37.5,0.0,2.3,111
2011-02-28 05:40:54,16.5,-20.1,36.5,0.0,2.3,112
2011-02-28 05:45:54,16.5,-15.7,32.2,0.0,2.3,111
2011-02-28 05:50:54,16.5,-22.9,39.4,0.1,2.3,112
2011-02-28 05:55:54,16.5,-21.4,37.8,0.2,2.3,111
2011-02-28 06:00:54,16.4,-16.0,32.4,0.4,2.3,112
2011-02-28 06:05:54,16.5,-16.6,33.2,0.8,2.3,111
2011-02-28 06:10:54,16.6,-10.8,27.4,1.6,2.3,112
2011-02-28 06:15:54,16.8,-13.4,30.1,3.1,2.3,111
2011-02-28 06:20:54,16.8,-10.6,27.5,6.0,2.3,112
2011-02-28 06:25:54,16.9,-9.9,26.8,10.4,2.3,112
2011-02-28 06:30:54,17.0,-10.1,27.1,16.0,2.3,111
2011-02-28 06:35:54,17.0,-7.0,24.0,20.8,2.3,112
2011-02-28 06:40:54,17.0,-6.3,23.3,24.8,2.3,112
2011-02-28 06:45:54,17.1,-4.8,21.8,27.2,2.3,112
2011-02-28 06:50:54,17.1,-4.4,21.5,28.8,2.3,111
2011-02-28 06:55:54,17.0,-5.0,22.0,30.0,2.3,112
2011-02-28 07:00:54,15.9,-3.1,19.0,30.4,2.3,111
2011-02-28 07:05:54,13.5,-2.7,16.1,30.4,2.3,112
2011-02-28 07:10:54,12.6,-3.0,15.6,30.9,2.3,111
2011-02-28 07:15:54,12.3,-7.7,20.0,31.7,2.1,112
2011-02-28 07:20:54,14.8,-20.9,35.7,32.0,2.4,111
2011-02-28 07:25:54,16.0,-17.1,33.1,32.1,2.3,112
2011-02-28 07:30:54,16.5,-10.5,27.0,32.1,2.3,112
2011-02-28 07:35:54,16.8,-9.6,26.4,32.1,2.3,111
2011-02-28 07:40:54,16.9,-5.6,22.5,32.1,2.3,112
2011-02-28 07:45:54,17.0,-4.4,21.4,32.1,2.3,112
2011-02-28 07:50:54,17.1,-4.1,21.2,32.1,2.3,112
2011-02-28 07:55:54,17.2,-3.7,21.0,32.1,2.3,112
2011-02-28 08:00:54,17.3,-3.2,20.5,32.1,2.3,112
2011-02-28 08:05:54,16.5,-3.0,19.4,31.9,2.3,112
2011-02-28 08:10:54,14.0,-2.9,16.9,31.8,2.3,112
2011-02-28 08:15:54,13.1,-2.7,15.8,31.8,2.4,111
2011-02-28 08:20:54,12.8,-2.4,15.2,31.8,2.4,112
2011-02-28 08:25:54,13.2,-2.1,15.4,31.6,2.3,111
2011-02-28 08:30:55,12.6,-1.2,13.7,31.5,2.2,112
2011-02-28 08:35:55,12.5,-1.3,13.8,31.8,2.1,111
2011-02-28 08:40:55,12.4,-1.3,13.7,32.0,1.9,112
2011-02-28 08:45:55,12.4,-1.2,13.5,32.0,1.8,111
2011-02-28 08:50:55,12.3,-1.3,13.6,32.0,1.7,112
2011-02-28 08:55:55,12.3,-2.3,14.6,32.2,1.7,112
2011-02-28 09:00:55,12.3,-2.5,14.8,32.2,1.7,111
2011-02-28 09:05:55,12.3,-2.4,14.8,32.3,1.7,112
2011-02-28 09:10:55,12.4,-2.5,14.9,32.3,1.8,112
2011-02-28 09:15:55,12.5,-2.4,14.9,32.3,1.8,111
2011-02-28 09:20:55,12.5,-2.2,14.7,32.3,1.8,112
2011-02-28 09:25:55,12.5,-1.8,14.3,32.4,1.8,111
2011-02-28 09:30:55,12.5,-1.9,14.5,32.4,1.8,112
2011-02-28 09:35:55,12.5,-1.9,14.4,32.4,1.8,111
2011-02-28 09:40:55,12.6,-1.4,14.0,32.3,1.8,111
2011-02-28 09:45:55,12.7,-1.5,14.2,32.3,1.8,112
2011-02-28 09:50:55,12.8,-1.7,14.5,32.4,1.9,112
2011-02-28 09:55:55,12.9,-1.7,14.6,32.4,2.1,111
2011-02-28 10:00:55,12.9,-1.8,14.7,32.4,2.2,112
2011-02-28 10:05:55,13.0,-2.4,15.4,32.4,2.2,112
2011-02-28 10:10:55,13.0,-2.7,15.7,32.5,2.3,111
2011-02-28 10:15:55,13.1,-2.1,15.2,32.5,2.2,112
2011-02-28 10:20:55,13.1,-2.0,15.1,32.4,2.2,111
2011-02-28 10:25:55,13.0,-2.2,15.2,32.3,2.2,111
2011-02-28 10:30:55,12.9,-2.1,15.0,32.3,2.1,112
2011-02-28 10:35:55,12.8,-2.4,15.2,32.3,1.9,112
2011-02-28 10:40:55,12.8,-2.0,14.8,32.2,1.8,111
2011-02-28 10:45:55,12.5,-1.6,14.0,32.0,2.3,112
2011-02-28 10:50:55,12.2,-1.8,14.0,32.1,2.3,111
2011-02-28 10:55:55,11.9,-1.7,13.7,32.1,2.7,112
2011-02-28 11:00:55,11.8,-1.5,13.3,32.1,2.6,111
2011-02-28 11:05:55,11.7,-1.8,13.4,32.1,2.5,112
2011-02-28 11:10:55,11.5,-2.1,13.7,32.1,3.4,111
2011-02-28 11:15:55,11.4,-1.7,13.2,32.2,2.4,112
2011-02-28 11:20:55,11.4,-1.7,13.2,32.2,2.3,111
2011-02-28 11:25:55,11.5,-1.5,13.0,32.3,2.6,112
2011-02-28 11:30:55,11.6,-1.3,12.9,32.5,2.5,111
2011-02-28 11:35:55,11.8,-2.2,14.0,32.5,2.3,112
2011-02-28 11:40:55,12.0,-2.7,14.7,32.5,2.3,112
2011-02-28 11:45:55,12.1,-2.7,14.8,32.5,2.3,111
2011-02-28 11:50:55,12.4,-2.6,15.0,32.5,2.0,112
2011-02-28 11:55:55,12.6,-2.8,15.4,32.5,1.7,112
2011-02-28 12:00:55,12.8,-2.2,15.1,32.5,1.8,111
2011-02-28 12:05:55,13.0,-2.3,15.3,32.5,1.9,112
2011-02-28 12:10:55,12.9,-2.1,14.9,32.5,1.9,112
2011-02-28 12:15:55,12.8,-1.6,14.4,32.5,1.8,111
2011-02-28 12:20:55,12.8,-1.6,14.4,32.5,2.1,112
2011-02-28 12:25:55,12.8,-1.4,14.3,32.5,2.1,112
2011-02-28 12:30:55,12.8,-1.2,14.1,32.5,2.0,111
2011-02-28 12:35:55,12.7,-2.0,14.7,32.4,1.9,112
2011-02-28 12:40:55,12.6,-3.2,15.7,32.5,1.7,111
2011-02-28 12:45:55,13.0,-3.3,16.3,32.6,2.0,112
2011-02-28 12:50:55,13.8,-3.0,16.8,32.6,2.4,112
2011-02-28 12:55:55,14.2,-2.8,17.0,32.6,2.4,112
2011-02-28 13:00:55,13.9,-2.7,16.6,32.5,2.4,111
2011-02-28 13:05:55,13.7,-3.3,17.0,32.5,2.4,112
2011-02-28 13:10:55,13.6,-3.1,16.7,32.5,2.4,112
2011-02-28 13:15:55,13.4,-3.0,16.4,32.5,2.4,112
2011-02-28 13:20:55,13.2,-2.9,16.0,32.5,2.3,112
2011-02-28 13:25:55,13.0,-2.5,15.5,32.4,2.2,111
2011-02-28 13:30:55,13.0,-2.7,15.7,32.5,2.2,112
2011-02-28 13:35:55,12.9,-2.6,15.5,32.4,2.0,111
2011-02-28 13:40:55,12.8,-2.8,15.6,32.4,2.0,112
2011-02-28 13:45:55,12.8,-2.8,15.5,32.4,1.9,112
2011-02-28 13:50:55,12.7,-2.8,15.5,32.4,1.8,112
2011-02-28 13:55:55,12.6,-2.6,15.2,32.4,1.7,111
2011-02-28 14:00:55,12.7,-2.2,14.9,32.4,1.7,112
2011-02-28 14:05:55,12.7,-2.1,14.8,32.4,1.8,111
2011-02-28 14:10:55,12.7,-2.0,14.6,32.4,1.7,112
2011-02-28 14:15:55,12.9,-1.3,14.2,32.5,1.8,111
2011-02-28 14:20:55,13.1,-2.1,15.2,32.5,2.1,112
2011-02-28 14:25:55,13.1,-2.4,15.5,32.4,2.2,111
2011-02-28 14:30:55,13.0,-2.3,15.3,32.3,2.2,112
2011-02-28 14:35:55,12.8,-3.3,16.1,32.4,2.1,112
2011-02-28 14:40:55,12.6,-3.3,15.9,32.4,1.9,112
2011-02-28 14:45:55,12.6,-3.4,15.9,32.4,1.8,111
2011-02-28 14:50:55,12.5,-2.6,15.1,32.4,1.9,112
2011-02-28 14:55:55,12.4,-2.2,14.6,32.3,1.9,111
2011-02-28 15:00:55,12.1,-2.1,14.2,32.3,2.0,112
2011-02-28 15:05:55,12.0,-2.1,14.1,32.4,2.3,111
2011-02-28 15:10:55,12.0,-2.5,14.5,32.4,2.3,112
2011-02-28 15:15:55,11.9,-3.6,15.5,32.4,2.3,112
2011-02-28 15:20:55,12.3,-8.4,20.7,32.5,2.2,111
2011-02-28 15:25:55,15.6,-6.1,21.7,32.6,2.2,112
2011-02-28 15:30:55,15.9,-3.9,19.9,32.6,2.3,112
2011-02-28 15:35:55,17.9,-2.9,20.8,32.5,2.3,111
2011-02-28 15:40:55,17.8,-3.1,20.8,32.4,2.3,112
2011-02-28 15:45:55,17.3,-2.4,19.7,32.4,2.3,112
2011-02-28 15:50:55,14.4,-2.6,17.0,32.4,2.4,111
2011-02-28 15:55:55,13.1,-2.2,15.2,32.3,2.2,112
2011-02-28 16:00:55,12.5,-2.3,14.8,32.3,1.7,111
2011-02-28 16:05:55,12.2,-2.3,14.4,32.2,2.0,112
2011-02-28 16:10:55,12.0,-2.6,14.6,32.2,2.3,111
2011-02-28 16:15:55,11.9,-2.6,14.5,32.2,2.4,112
2011-02-28 16:20:55,11.8,-2.4,14.3,32.1,2.3,111
2011-02-28 16:25:55,11.8,-2.1,13.9,32.0,2.3,112
2011-02-28 16:30:55,11.7,-3.1,14.8,31.9,2.3,112
2011-02-28 16:35:55,11.6,-2.5,14.1,31.8,2.4,112
2011-02-28 16:40:55,11.5,-3.0,14.5,31.9,2.4,112
2011-02-28 16:45:55,11.4,-3.4,14.7,32.1,2.4,111
2011-02-28 16:50:55,11.4,-4.5,15.8,32.2,2.3,112
2011-02-28 16:55:55,11.4,-5.3,16.6,32.2,2.3,111
2011-02-28 17:00:55,11.4,-6.6,17.9,32.2,2.3,112
2011-02-28 17:05:55,11.4,-6.4,17.8,32.1,2.3,112
2011-02-28 17:10:55,11.4,-5.3,16.7,32.0,2.3,112
2011-02-28 17:15:55,11.4,-3.3,14.7,31.7,2.3,111
2011-02-28 17:20:55,11.4,-3.9,15.3,31.6,2.3,112
2011-02-28 17:25:55,11.4,-3.4,14.8,31.2,2.3,112
2011-02-28 17:30:55,11.5,-3.7,15.2,30.6,2.3,111
2011-02-28 17:35:55,11.5,-3.5,15.0,29.8,2.3,112
2011-02-28 17:40:55,11.4,-3.5,15.0,28.3,2.3,112
2011-02-28 17:45:55,11.4,-3.3,14.7,26.1,2.3,111
2011-02-28 17:50:55,11.2,-2.8,14.0,23.5,2.3,112
2011-02-28 17:55:55,11.5,-3.1,14.5,22.6,2.3,112
2011-02-28 18:00:55,11.4,-3.1,14.5,18.5,2.3,112
2011-02-28 18:05:55,11.4,-2.8,14.2,11.7,2.3,112
2011-02-28 18:10:55,11.4,-2.7,14.2,6.6,2.3,112
2011-02-28 18:15:55,11.4,-3.1,14.5,4.0,2.3,111
2011-02-28 18:20:55,11.4,-2.6,14.0,2.0,2.3,112
2011-02-28 18:25:55,11.5,-2.6,14.0,1.0,2.3,112
2011-02-28 18:30:55,11.5,-2.5,14.0,0.5,2.3,112
2011-02-28 18:35:55,11.5,-2.6,14.1,0.3,2.3,111
2011-02-28 18:40:55,11.5,-2.6,14.1,0.2,2.3,112
2011-02-28 18:45:55,11.5,-2.5,14.1,0.1,2.3,111
2011-02-28 18:50:55,11.5,-2.3,13.8,0.0,2.3,112
2011-02-28 18:55:55,11.5,-2.3,13.8,0.0,2.3,112
2011-02-28 19:00:55,11.5,-2.2,13.7,0.0,2.3,111
2011-02-28 19:05:55,11.4,-2.2,13.7,0.0,2.3,112
2011-02-28 19:10:55,11.4,-2.2,13.6,0.0,2.3,111
2011-02-28 19:15:55,11.4,-1.9,13.4,0.0,2.3,111
2011-02-28 19:20:55,11.4,-2.2,13.6,0.0,2.2,112
2011-02-28 19:25:55,11.5,-2.3,13.7,0.0,2.2,111
2011-02-28 19:30:55,11.4,-2.3,13.7,0.0,2.3,112
2011-02-28 19:35:55,11.4,-2.1,13.5,0.0,2.3,111
2011-02-28 19:40:55,11.4,-2.3,13.7,0.0,2.3,112
2011-02-28 19:45:55,11.4,-2.9,14.3,0.0,2.4,112
2011-02-28 19:50:55,11.4,-3.4,14.8,0.0,2.4,111
2011-02-28 19:55:55,11.4,-3.4,14.8,0.0,2.3,112
2011-02-28 20:00:55,11.5,-2.1,13.5,0.0,2.4,112
2011-02-28 20:05:55,11.5,-1.8,13.3,0.0,2.3,111
2011-02-28 20:10:55,11.6,-1.6,13.2,0.0,2.3,112
2011-02-28 20:15:55,11.6,-1.8,13.4,0.0,2.3,112
2011-02-28 20:20:55,11.6,-1.8,13.4,0.0,2.3,111
2011-02-28 20:25:55,11.7,-2.0,13.7,0.0,2.3,112
2011-02-28 20:30:55,11.6,-2.3,14.0,0.0,2.3,111
2011-02-28 20:35:55,11.6,-1.9,13.5,0.0,2.3,112
2011-02-28 20:40:55,11.6,-2.4,14.0,0.0,2.3,111
2011-02-28 20:45:55,11.6,-2.1,13.7,0.0,2.3,112
2011-02-28 20:50:55,11.6,-2.1,13.7,0.0,2.3,111
2011-02-28 20:55:55,11.6,-2.1,13.7,0.0,2.3,112
2011-02-28 21:00:55,11.6,-2.6,14.2,0.0,2.3,111
2011-02-28 21:05:55,11.6,-2.9,14.4,0.0,2.3,112
2011-02-28 21:10:55,11.6,-3.0,14.6,0.0,2.3,112
2011-02-28 21:15:55,11.5,-3.0,14.6,0.0,2.3,112
2011-02-28 21:20:55,11.5,-2.8,14.3,0.0,2.3,111
2011-02-28 21:25:55,11.5,-2.6,14.1,0.0,2.3,112
2011-02-28 21:30:55,11.5,-2.6,14.2,0.0,2.3,112
2011-02-28 21:35:55,11.5,-2.5,14.0,0.0,2.3,112
2011-02-28 21:40:55,11.6,-2.3,13.9,0.0,2.3,111
2011-02-28 21:45:55,11.6,-2.4,14.0,0.0,2.3,112
2011-02-28 21:50:55,11.6,-2.2,13.7,0.0,2.3,112
2011-02-28 21:55:55,11.6,-2.0,13.5,0.0,2.3,112
2011-02-28 22:00:55,11.6,-1.8,13.4,0.0,2.3,111
2011-02-28 22:05:55,11.6,-2.6,14.1,0.0,2.3,112
2011-02-28 22:10:55,11.6,-3.9,15.5,0.0,2.4,112
2011-02-28 22:15:55,11.5,-3.0,14.5,0.0,2.4,112
2011-02-28 22:20:55,11.5,-2.6,14.1,0.0,2.4,112
2011-02-28 22:25:55,11.5,-2.4,13.9,0.0,2.3,112
2011-02-28 22:30:55,11.5,-1.9,13.3,0.0,2.4,111
2011-02-28 22:35:55,11.5,-1.9,13.5,0.0,2.4,111
2011-02-28 22:40:55,11.5,-2.0,13.5,0.0,2.4,112
2011-02-28 22:45:55,11.5,-2.2,13.7,0.0,2.4,112
2011-02-28 22:50:55,11.5,-2.7,14.2,0.0,2.4,111
2011-02-28 22:55:55,11.5,-2.7,14.2,0.0,2.4,112
2011-02-28 23:00:55,11.5,-3.1,14.5,0.0,2.4,112
2011-02-28 23:05:55,11.6,-7.0,18.6,0.0,2.4,112
2011-02-28 23:10:55,14.4,-13.8,28.2,0.0,2.0,111
2011-02-28 23:15:55,15.5,-11.9,27.3,0.0,2.1,111
2011-02-28 23:20:55,15.9,-10.4,26.3,0.0,2.3,112
2011-02-28 23:25:55,16.0,-10.2,26.2,0.0,2.4,111
2011-02-28 23:30:55,15.9,-5.5,21.5,0.0,2.4,112
2011-02-28 23:35:56,13.3,-3.4,16.7,0.0,1.9,112
2011-02-28 23:40:56,12.1,-3.2,15.2,0.0,2.0,112
2011-02-28 23:45:56,11.7,-2.9,14.7,0.0,2.3,111
2011-02-28 23:50:56,11.6,-2.8,14.4,0.0,2.3,112
2011-02-28 23:55:56,11.6,-2.7,14.3,0.0,2.4,112
